Tracking 31027 objects as of 19-Jul-2025
HD Live streaming from Space Station
objects crossing your sky now

ATLAS 14E R/B

Track ATLAS 14E R/B now!
10-day predictions


NORAD ID: 15272
Int'l Code: 1984-097B
Perigee: 1,756.1 km
Apogee: 19,598.9 km
Inclination: 64.9 °
Period: 369.2 minutes
Semi major axis: 17048 km
RCS: 2.3359 m2 (large)
Launch date: September 8, 1984
Source: United States (US)
Launch site: AIR FORCE WESTERN TEST RANGE (AFWTR)

Note: This is a ROCKET BODY
Your satellite tracking list
KHAYYAM
Track 1 satellite(s)




NASA's NSSDC Master Catalog

Two Line Element Set (TLE):
1 15272U 84097B   25195.52338941 -.00000034  00000-0  00000-0 0  9990
2 15272  64.8834  22.7990 5232942 295.0272  30.8126  3.90006789581764
Source of the keplerian elements: AFSPC